Location: Terra Rouge Observatory
(46.0000°N, 62.7500°W)
Time: 11:03:13
(UTC-04:00)

Daily predictions for brighter satellites

Satellite Brightness Start Highest point End
(mag) Time Altitude Azimuth Time Altitude Azimuth Time Altitude Azimuth
FALCON 9 R/B 4.3 17:55:19 10° SW 18:00:51 41° SSE 18:18:24 10° E
Cosmos 2285 Rocket 4.0 18:05:35 10° S 18:11:53 72° ESE 18:18:15 10° NNE
Cosmos 2237 Rocket 2.3 18:08:52 10° NNW 18:14:32 86° WSW 18:20:09 10° SSE
MOS 1 4.3 18:09:39 10° SSE 18:15:16 70° ENE 18:20:56 10° N
Cosmos 2219 3.8 18:10:10 10° SW 18:15:43 60° WNW 18:21:20 10° NNE
Cosmos 2227 Rocket 2.3 18:10:17 10° S 18:15:49 60° ESE 18:21:23 10° NNE
FENGYUN 3A 3.7 18:12:22 10° SSE 18:17:45 81° ENE 18:23:12 10° NNW
SL-16 R/B 2.5 18:12:51 10° NNW 18:18:20 46° ENE 18:23:46 10° SE
SeaSat 1 3.5 18:15:34 10° ESE 18:19:37 26° NE 18:23:41 10° N
NOSS 3-2 (C) 3.5 18:13:55 10° SSW 18:19:46 64° ESE 18:26:19 10° NE
Envisat 4.2 18:17:48 10° ESE 18:21:30 21° ENE 18:25:13 10° NNE
MOS 1-B Rocket 4.0 18:17:18 10° SSE 18:23:38 85° ENE 18:29:22 10° NNW
Cosmos 1862 4.4 18:21:01 10° SSW 18:24:52 49° WNW 18:28:45 10° N
Cosmos 44 Rocket 3.6 18:20:11 10° NNW 18:25:05 51° NE 18:30:03 10° SE
SJ-6B 4.1 18:22:39 10° ESE 18:25:30 20° ENE 18:28:23 10° NNE
Cosmos 1674 Rocket 3.6 18:24:48 10° N 18:29:07 55° ENE 18:33:21 10° SSE
Tiangong 2 2.9 18:26:53 10° WSW 18:29:39 27° SSW 18:32:24 10° SE
Cosmos 2297 Rocket 2.2 18:24:10 10° SSW 18:29:45 67° ESE 18:35:23 10° NNE
H-2A R/B 2.9 18:31:37 10° SSE 18:35:27 55° ENE 18:39:17 10° N
FREGAT/IRIS 3.3 18:32:55 10° SE 18:35:37 32° ENE 18:38:20 10° N
CZ-4 R/B 3.6 18:32:09 10° SSW 18:35:46 31° W 18:39:19 10° NNW
Okean 1 4.2 18:32:44 10° NNE 18:36:10 26° ENE 18:39:33 10° SE
Okean 3 3.5 18:33:21 10° N 18:37:28 54° ENE 18:41:33 10° SSE
HJ-1C 4.3 18:36:21 10° SE 18:39:19 28° ENE 18:42:20 10° N
MTI 3.7 18:36:16 10° NNE 18:39:29 88° ESE 18:42:40 10° SSW
Cosmos 1908 Rocket 4.1 18:35:34 10° SSE 18:39:38 36° E 18:43:44 10° NNE
YAOGAN 1 4.1 18:36:56 10° S 18:41:01 41° W 18:45:09 10° NNW
Cosmos 921 Rocket 3.8 18:37:24 10° N 18:41:32 33° ENE 18:45:36 10° SE
USA 267 3.9 18:39:50 12° E 18:45:23 41° NNE 18:51:23 10° NW
CENTAUR R/B 2.9 18:39:47 10° S 18:45:23 43° ESE 18:51:46 10° NE
Cosmos 1633 2.8 18:42:45 10° SSE 18:46:08 42° E 18:49:33 10° NNE
Cosmos 1733 Rocket 3.1 18:41:55 10° S 18:46:14 84° W 18:50:35 10° N
CZ-4C R/B 3.9 18:41:56 10° NNW 18:47:36 27° NNE 18:52:25 15° ENE
ERS-2 2.1 18:45:18 10° SSE 18:48:55 58° ENE 18:52:34 10° N
Cosmos 1812 2.7 18:46:45 10° N 18:50:39 88° W 18:54:31 10° S
Meteor 1-18 Rocket 4.2 18:45:22 10° N 18:50:57 62° ENE 18:56:26 10° SSE
ALOS 3.5 18:48:09 10° S 18:52:37 45° W 18:57:07 10° NNW
CZ-2D R/B 4.0 18:49:10 10° SE 18:52:41 33° ENE 18:56:13 10° N
Cosmos 2084 Rocket 4.3 18:50:58 10° WSW 18:55:11 48° NW 18:59:13 10° NNE
Cosmos 44 3.6 18:51:26 10° NW 18:56:27 76° WSW 19:01:41 10° SSE
Cosmos 2082 3.8 18:52:38 10° SSW 18:58:16 84° WNW 19:03:57 10° NNE
SL-8 R/B 3.9 18:54:56 10° SW 18:59:35 54° SSE 19:02:31 22° E
Cosmos 1513 Rocket 4.5 18:53:57 10° N 19:00:19 68° E 19:06:33 10° SSE
Aureole 3 4.0 18:57:31 10° S 19:03:25 87° WNW 19:08:00 10° N
Cosmos 1975 Rocket 3.5 18:59:46 10° N 19:03:58 40° ENE 19:08:09 10° SE
Meteor 1-25 Rocket 4.1 18:59:36 10° S 19:05:07 74° E 19:10:41 10° NNE
Cosmos 1452 Rocket 3.8 19:00:33 10° NNW 19:05:48 69° WSW 19:11:01 10° S
Lacrosse 5 4.3 19:02:13 10° WNW 19:06:02 22° WSW 19:09:50 10° S
Resurs 01 Rocket 2.5 19:05:04 23° E 19:06:33 28° ENE 19:10:20 10° N
DNEPR-1 R/B 4.3 19:05:00 10° SW 19:09:05 51° NW 19:13:27 10° NNE
SPOT 3 Rocket 4.4 19:04:46 10° S 19:09:50 53° W 19:14:58 10° NNW
Meteor 2-4 Rocket 4.4 19:04:40 10° N 19:09:52 32° ENE 19:12:44 21° ESE
BREEZE-M DEB (TANK) 1.4 19:08:54 10° WNW 19:11:16 86° SSW 19:12:11 37° ESE
Iridium 4 Rocket 3.2 19:06:16 10° N 19:11:16 78° E 19:15:47 10° S
Spot 2 Rocket 4.3 19:09:36 24° E 19:11:22 29° ENE 19:15:43 10° N
Cosmos 1048 Rocket 4.1 19:09:02 10° S 19:14:14 56° ESE 19:19:24 10° NNE
ATLAS 3B R/B 4.0 19:07:54 10° WSW 19:14:31 39° NW 19:20:55 10° NNE
Cosmos 158 Rocket 3.7 19:09:55 10° SSW 19:14:48 83° ESE 19:19:42 10° NNE
CRYOSAT 2 4.4 19:12:32 10° NNE 19:17:19 52° E 19:22:03 10° SSE
NOSS 3-2 (A) 4.3 19:11:34 10° WSW 19:17:26 49° NW 19:24:01 10° NNE
COSMOS 2455 4.4 19:14:15 10° SSE 19:16:16 16° SE 19:16:16 16° SE
EO 1 Del DPAF 4.2 19:14:44 10° N 19:18:27 50° WNW 19:22:09 10° SSW
Cosmos 1437 Rocket 2.9 19:15:34 10° S 19:19:30 51° E 19:23:30 10° NNE
Tsikada Rocket 4.1 19:15:18 10° SSE 19:21:29 53° E 19:27:41 10° NNE
Cosmos 1378 Rocket 4.1 19:23:17 10° NNW 19:27:39 60° W 19:31:59 10° S
Cosmos 1939 Rocket 3.3 19:29:52 41° ENE 19:29:52 41° ENE 19:33:42 10° N
USA 186 2.7 19:31:33 36° NNE 19:31:33 36° NNE 19:33:50 10° N
Cosmos 1464 Rocket 4.4 19:28:43 10° NNW 19:34:45 62° W 19:40:47 10° S
Cosmos 1782 Rocket 3.4 19:32:49 10° S 19:37:15 84° E 19:41:42 10° N
Sich 1 Rocket 3.8 19:33:51 10° SSW 19:38:20 74° W 19:42:50 10° N
Cosmos 1943 3.5 19:39:12 10° NNW 19:44:37 44° ENE 19:45:18 42° ENE
ATLAS CENTAUR R/B 2.7 19:43:02 10° NNW 19:45:42 26° NNE 19:45:42 26° NNE
ARGOS Delta rocket 3.8 19:47:25 10° N 19:52:22 82° WNW 19:57:00 10° SSW
USA 215 3.1 19:49:59 31° ENE 19:53:22 74° SE 19:59:53 10° SW
Okean 2 Rocket 2.9 19:50:12 10° S 19:54:35 79° E 19:59:01 10° NNE
Meteor 1-23 Rocket 4.5 19:50:22 10° N 19:55:55 48° ENE 19:55:55 48° ENE
SeaSat 1 3.0 19:53:05 17° S 19:56:51 56° WSW 20:01:43 10° NW
Thor Agena Rocket 3.7 19:53:56 10° N 19:59:02 71° WNW 20:04:03 10° SSW
SJ-6B 4.4 19:56:31 10° SSW 19:59:57 33° W 20:03:29 10° NNW
Envisat 3.5 19:55:06 10° S 20:00:06 59° W 20:05:08 10° NNW
Cosmos 2227 Rocket 4.2 19:55:35 10° WSW 20:00:17 26° NW 20:05:01 10° N
SL-16 R/B 4.0 19:57:22 10° NW 20:02:13 30° WSW 20:07:03 10° SSW
YAOGAN 6 4.2 20:04:05 29° NNW 20:04:05 29° NNW 20:05:56 10° NNW
Cosmos 2279 Rocket 4.4 19:59:49 10° N 20:04:53 42° NE 20:04:53 42° NE
Meteor 1-13 Rocket 4.2 20:01:23 10° NNW 20:06:57 78° W 20:10:13 25° S
SJ-11-01 4.2 20:10:42 80° N 20:10:42 80° N 20:15:13 10° NNW
Cosmos 1269 Rocket 4.4 20:05:14 10° SSW 20:10:29 64° WNW 20:15:46 10° NNE
Cosmos 1110 Rocket 4.1 20:08:01 10° NNW 20:13:18 74° WSW 20:14:27 54° S
Cosmos 2297 Rocket 4.3 20:09:46 10° W 20:14:19 24° NW 20:18:54 10° N
Cosmos 1603 4.1 20:15:26 10° NNW 20:21:01 61° WSW 20:22:38 43° SSW
Cosmos 1634 Rocket 3.9 20:17:28 10° N 20:23:40 85° W 20:25:21 51° S
USA 267 3.1 20:27:11 71° ESE 20:27:57 83° NE 20:34:32 10° NW
H-2A R/B 3.9 20:31:19 21° NNE 20:31:19 21° NNE 20:33:18 10° N
Cosmos 2142 Rocket 4.4 20:25:50 10° N 20:32:14 85° W 20:33:03 70° S
CENTAUR R/B 3.4 20:29:59 10° WSW 20:36:00 47° NW 20:40:44 20° NNE
CZ-4C R/B 2.7 20:30:11 10° NW 20:37:16 75° NE 20:37:37 74° ENE
Resurs 01 Rocket 3.2 20:42:37 31° WSW 20:42:57 32° W 20:46:55 10° NNW
USA 215 4.2 21:37:21 44° NW 21:37:21 44° NW 21:42:23 10° W
